Wind_Speed
10 12 13 14 13 13 19 17 14 10 7 8 7 10 7 8 6 6 9 10 15 14 15 12 14 21 20 18 15 14 12 17
20 19 20 18 17 18 19 21 18 14 7 7 8 11 9 11 10 10 9 8 12 12 10 13 13 24 22 24 18 17 13 15
25 23 19 19 24 22 21 23 22 21 11 10 7 5 10 8 9 13 11 8 8 6 10 13 10 13 15 16 26 24 15 16
21 24 24 21 19 20 17 16 17 21 19 16 16 14 8 7 13 13 10 7 7 6 6 7 10 12 14 12 15 23 21 19
24 26 28 28 26 24 24 22 21 20 19 19 18 20 13 12 10 10 7 6 3 3 4 5 8 9 9 9 12 21 20 21
31 23 29 31 31 28 30 29 28 23 19 20 21 19 16 11 12 11 8 10 8 5 5 5 6 7 9 12 14 18 20 22
39 37 34 33 31 35 33 31 32 26 26 20 19 22 24 16 13 11 9 12 9 3 3 6 7 10 8 10 15 17 20 19
46 42 43 43 35 33 34 35 36 36 31 26 18 21 24 19 17 18 12 12 7 3 2 4 6 8 9 8 9 11 15 18
49 51 48 48 40 39 36 33 35 37 33 33 28 28 27 24 21 20 16 19 12 8 6 6 7 7 10 10 7 7 10 13
45 44 57 53 44 42 39 36 35 34 35 33 31 28 19 22 24 23 21 17 17 14 11 11 11 11 10 10 9 7 8 10
46 46 48 48 50 49 47 42 39 39 37 35 31 27 27 21 21 24 25 22 20 23 22 16 15 15 13 10 10 9 8 9
48 49 51 45 46 41 47 49 44 43 36 34 35 34 25 25 18 22 26 25 25 25 22 20 20 16 14 12 10 10 10 8
47 46 49 46 41 34 45 43 43 39 40 37 33 31 26 29 27 30 32 27 26 21 24 23 22 18 16 13 12 12 13 13
40 45 51 47 43 37 35 39 36 34 37 38 33 31 24 28 33 27 32 29 28 27 28 24 21 19 17 17 16 16 16 16
37 39 42 49 49 45 39 38 38 30 29 31 28 25 25 24 23 29 36 31 29 25 23 24 20 19 18 18 20 20 21 21
31 30 36 42 45 48 41 37 38 37 39 34 30 30 31 24 29 33 36 36 31 23 22 23 20 17 18 19 21 23 23 24
33 30 35 36 37 29 32 38 40 38 34 34 35 31 34 29 30 28 33 33 30 27 23 21 20 19 18 19 21 22 22 22
28 33 34 28 31 38 33 29 31 30 30 33 33 35 33 34 34 37 40 41 33 34 23 25 22 21 15 12 15 19 19 21
26 22 26 26 30 32 32 34 29 23 24 30 33 35 37 37 39 43 44 43 44 38 31 25 23 17 11 11 12 16 16 19
Wind_Direction
213 215 240 246 243 249 261 269 257 254 270 311 260 241 278 317 346 338 267 232 237 235 225 224 230 222 216 224 235 235 228 219
210 231 241 248 252 252 257 258 260 248 269 269 276 256 271 312 323 319 311 267 253 241 229 235 240 216 224 225 232 228 232 232
217 218 234 253 254 250 256 255 254 259 242 258 244 243 248 288 306 328 305 280 283 241 219 241 235 212 220 233 235 222 232 234
242 218 224 230 227 234 249 256 261 260 257 248 265 268 263 286 288 295 307 283 281 266 239 226 224 228 229 242 213 202 217 227
235 232 242 229 232 240 240 245 244 268 281 261 255 268 276 265 286 269 280 245 221 225 230 233 235 243 233 227 213 215 228 235
264 251 248 243 249 250 248 251 258 270 284 286 272 262 276 265 261 255 223 208 212 226 266 260 257 241 224 221 218 221 227 239
260 267 263 260 255 254 255 260 262 268 271 287 286 269 259 267 297 278 220 208 180 136 332 311 269 258 243 229 226 230 231 232
252 256 263 267 265 255 252 256 263 266 270 274 274 278 286 277 283 276 253 205 182 209 297 333 289 262 262 257 241 228 235 238
253 251 253 253 254 267 265 265 265 263 269 270 268 268 280 276 269 262 254 224 221 238 279 305 278 263 258 258 255 249 246 240
250 250 250 253 249 256 257 255 259 265 265 267 268 274 272 288 272 266 255 262 250 262 269 284 275 254 240 243 250 258 265 264
246 246 250 254 251 250 253 252 256 264 259 261 260 273 267 286 261 268 260 255 274 271 267 266 264 261 261 253 248 252 268 281
248 248 247 251 256 254 253 252 253 260 269 268 264 266 271 270 255 252 262 263 269 263 258 260 258 248 254 261 260 265 262 262
246 249 248 247 252 248 243 250 249 256 263 264 260 256 256 252 257 267 251 260 260 251 253 247 247 242 244 255 264 268 267 268
250 247 245 247 251 244 245 249 255 253 252 260 258 256 248 244 251 263 252 250 246 246 251 244 236 235 240 253 265 269 267 267
251 251 247 244 245 249 244 245 244 243 242 256 251 253 247 239 235 257 251 246 247 242 240 240 236 235 241 254 264 272 272 265
245 249 247 246 248 249 243 242 244 242 244 250 249 242 240 225 236 236 235 251 248 241 237 241 251 255 258 262 274 277 275 265
246 255 252 247 243 229 242 240 240 241 240 244 243 245 232 234 227 231 220 237 251 254 248 243 253 258 262 273 273 272 270 267
244 253 235 238 238 242 241 235 234 235 231 230 232 234 234 229 225 227 228 238 240 240 239 253 248 246 253 271 268 271 280 273
239 241 227 225 231 236 231 234 230 232 228 224 224 226 230 228 223 231 245 229 226 225 236 234 235 241 257 275 287 280 281 280
Height
5859 5859 5860 5860 5861 5863 5860 5860 5862 5864 5867 5867 5866 5865 5864 5863 5862 5863 5862 5863 5864 5864 5865 5866 5868 5869 5871 5872 5874 5877 5879 5882
5855 5857 5858 5857 5859 5858 5857 5858 5858 5861 5863 5864 5865 5865 5864 5861 5861 5862 5861 5861 5862 5862 5863 5865 5865 5868 5869 5871 5871 5876 5878 5879
5850 5851 5855 5855 5854 5855 5856 5855 5855 5856 5861 5861 5862 5863 5863 5862 5861 5861 5860 5860 5860 5859 5861 5861 5863 5864 5866 5867 5869 5873 5875 5877
5846 5848 5847 5849 5849 5851 5851 5853 5852 5853 5856 5857 5859 5860 5862 5861 5861 5861 5860 5859 5858 5858 5859 5859 5860 5862 5863 5863 5863 5867 5870 5873
5843 5843 5841 5842 5845 5846 5847 5847 5848 5850 5852 5853 5855 5855 5858 5859 5859 5860 5859 5859 5857 5857 5857 5858 5858 5858 5859 5860 5860 5863 5866 5868
5834 5839 5840 5839 5840 5841 5842 5842 5844 5846 5847 5849 5851 5852 5853 5856 5856 5857 5857 5858 5857 5855 5855 5855 5856 5855 5855 5857 5858 5860 5861 5863
5823 5827 5829 5831 5833 5835 5836 5837 5838 5841 5842 5845 5846 5847 5848 5852 5853 5854 5855 5855 5853 5853 5853 5853 5853 5853 5853 5855 5855 5855 5857 5858
5811 5816 5818 5819 5823 5826 5828 5830 5831 5833 5836 5839 5841 5843 5843 5846 5848 5849 5851 5852 5851 5850 5850 5849 5850 5850 5850 5851 5851 5850 5851 5851
5798 5804 5806 5807 5812 5817 5819 5823 5825 5825 5830 5831 5834 5837 5838 5839 5841 5843 5845 5847 5847 5848 5847 5847 5847 5847 5847 5847 5847 5847 5847 5847
5786 5790 5789 5797 5804 5807 5809 5813 5815 5817 5820 5823 5827 5830 5832 5834 5835 5838 5840 5843 5843 5845 5846 5845 5844 5844 5845 5844 5843 5842 5842 5842
5774 5776 5781 5783 5789 5797 5799 5803 5806 5808 5810 5812 5817 5819 5822 5828 5829 5832 5833 5834 5836 5837 5840 5840 5840 5840 5839 5839 5839 5838 5837 5837
5762 5763 5767 5775 5778 5783 5787 5788 5795 5798 5803 5806 5808 5810 5816 5820 5823 5823 5825 5828 5829 5829 5832 5834 5836 5836 5835 5836 5835 5834 5834 5834
5747 5751 5756 5760 5763 5771 5774 5782 5784 5789 5792 5795 5800 5804 5808 5811 5813 5817 5817 5820 5823 5822 5824 5828 5830 5830 5830 5830 5830 5830 5829 5829
5736 5739 5744 5749 5754 5759 5765 5766 5772 5778 5782 5784 5790 5795 5799 5802 5804 5810 5810 5814 5815 5816 5817 5821 5822 5823 5824 5824 5824 5824 5824 5823
5726 5728 5731 5734 5738 5745 5753 5758 5763 5769 5773 5776 5781 5785 5789 5793 5798 5801 5804 5805 5809 5811 5812 5814 5815 5817 5818 5818 5818 5818 5818 5818
5715 5717 5719 5723 5727 5733 5740 5748 5752 5757 5763 5767 5771 5775 5780 5785 5789 5792 5795 5799 5802 5804 5806 5806 5807 5808 5809 5811 5812 5811 5811 5811
5705 5707 5709 5713 5718 5723 5728 5735 5741 5745 5753 5758 5761 5766 5771 5775 5779 5783 5787 5790 5792 5795 5797 5798 5799 5800 5801 5802 5803 5802 5802 5803
5697 5696 5697 5703 5709 5714 5720 5724 5729 5735 5741 5746 5750 5754 5760 5766 5770 5775 5777 5780 5784 5785 5786 5790 5792 5793 5795 5796 5796 5795 5793 5793
5690 5686 5691 5696 5701 5706 5713 5717 5722 5727 5734 5738 5741 5745 5750 5756 5760 5764 5767 5769 5763 5772 5775 5779 5783 5787 5788 5789 5790 5789 5787 5786